Miscellaneous Local Product
Issued by NWS North Platte, NE

Home | Current Version | Previous Version | Text Only | Print | Product List | Glossary On
Versions: 1 2 3 4 5 6 7 8 9 10 11 12 13 14 15 16 17 18 19 20 21 22 23 24 25 26 27 28 29 30 31 32 33 34 35 36 37 38 39 40 41 42 43 44 45 46 47 48 49 50
057
AXUS43 KLBF 221010
MISLBF


WESTERN AND NORTH CENTRAL NEBRASKA HOURLY WEATHER ROUNDUP
NATIONAL WEATHER SERVICE NORTH PLATTE NE
500 AM CDT SUN OCT 22 2017

NOTE: "FAIR" INDICATES FEW OR NO CLOUDS BELOW 12,000 FEET WITH NO
SIGNIFICANT WEATHER AND/OR OBSTRUCTIONS TO VISIBILITY.

NOTE: STATIONS NOT REPORTING VARIABLES SUCH AS SKY/WEATHER OR
PRESSURE ARE PROVIDED BY RAWS AND APRS NETWORKS AND ARE NOT UNDER
NATIONAL WEATHER SERVICE QUALITY CONTROL.

...OBSERVATIONS IN AND NEAR THE EASTERN PANHANDLE OF NEBRASKA...

CITY           SKY/WX    TMP DP  RH WIND       PRES   REMARKS
PINE RIDGE     CLEAR     24  19  81 CALM      30.03S
GORDON         FAIR      28  19  71 W3        30.03S
CHADRON        CLEAR     28  14  55 CALM      30.02F
ALLIANCE       CLEAR     24  16  71 W6        30.05F HAZE    WCI  17
SIDNEY         CLEAR     22  16  78 SW9       30.12S WCI  12
CRESCENT LAKE    N/A     35  19  52 SW6         N/A  WCI  30
$$

...OBSERVATIONS IN NORTHERN NEBRASKA AND FAR SOUTHERN SOUTH DAKOTA...

CITY           SKY/WX    TMP DP  RH WIND       PRES   REMARKS
WINNER         FAIR      40  27  59 SW6       30.01F
VALENTINE      CLEAR     31  27  85 W6        30.03F WCI  25
THEDFORD       CLEAR     34  26  72 SW8       30.06R WCI  28
AINSWORTH      CLEAR     34  29  83 SW5       30.03S WCI  30
O`NEILL        CLEAR     36  31  82 W7        30.04R WCI  30
ORD            CLEAR     30  28  92 NW3       30.06R
BROKEN BOW     CLEAR     27  24  89 CALM      30.07R
VALENTINE NWR    N/A     34  26  71 W3          N/A
HALSEY           N/A     34  22  61 SW5         N/A  WCI  30
BUTTE            N/A     36  28  73 W3          N/A
CHAMBERS         N/A     35  29  79 CALM        N/A
EWING            N/A     35  31  87 W3          N/A
$$

...OBSERVATIONS IN SOUTHWEST NEBRASKA AND FAR NORTHEAST COLORADO...

CITY           SKY/WX    TMP DP  RH WIND       PRES   REMARKS
WRAY           FAIR      28  23  80 SW7       30.16R WCI  21
HOLYOKE        FAIR      34  23  64 W7        30.14R WCI  28
IMPERIAL       CLEAR     42  21  43 NW12      30.12R
OGALLALA       CLEAR     32  24  71 CALM      30.10S
NORTH PLATTE   CLEAR     26  23  88 NW6       30.10S WCI  19
MCCOOK         CLEAR     32  24  72 SW9       30.14R WCI  24
LEXINGTON      CLEAR     32  27  81 CALM      30.11R
STAPLETON        N/A     33  24  71 CALM        N/A
GOTHENBURG       N/A     32  23  70 CALM        N/A
CALLAWAY         N/A     39  26  61 CALM        N/A
$$

...OBSERVATIONS IN CENTRAL LINCOLN COUNTY AREA...

CITY           SKY/WX    TMP DP  RH WIND       PRES   REMARKS
N.P. AIRPORT   CLEAR     26  23  88 NW6       30.10S WCI  19
N.P. DOWNTOWN    N/A     30  26  86 CALM        N/A
N.P. SOUTHEAST   N/A     31  25  78 CALM        N/A
N.P. HILLCREST   N/A     33  26  77 CALM        N/A
$$

...SOME OBSERVATIONS FROM AROUND THE REGION...

CITY           SKY/WX    TMP DP  RH WIND       PRES   REMARKS
DENVER         PTCLDY    42  12  29 S14       30.13S
LIMON          CLOUDY    20  15  81 N5        30.19S WCI  13
ASPEN          CLOUDY    22  18  85 SW5       30.41S WCI  16
LARAMIE        CLEAR     37  16  42 W23G29    30.15F WCI  26
CASPER         CLEAR     39  17  41 SW29G36   30.07R WCI  27
CHEYENNE       CLEAR     42  15  33 W13       30.12S
SCOTTSBLUFF    CLEAR     40  18  41 CALM      30.07F
GRAND ISLAND   CLEAR     35  33  92 SW7       30.09R WCI  29
OMAHA          MOCLDY    46  39  76 NW5       30.02R
SIOUX FALLS    CLEAR     41  36  82 W3        29.98R
PIERRE         CLEAR     39  28  64 W13       29.97R WCI  31
RAPID CITY     CLEAR     32  17  54 NW10      29.97S WCI  24
BISMARCK       CLEAR     35  28  75 SW5       29.86F WCI  31
KANSAS CITY    DRIZZLE   49  47  93 N5        30.03R
HILL CITY      CLEAR     36  27  69 W8        30.15R WCI  30
WICHITA        CLEAR     46  42  86 NW7       30.11R
DODGE CITY     CLEAR     37  28  70 W7        30.17R WCI  32
OKLAHOMA CITY  MOCLDY    51  49  92 N9        30.10R
DALLAS         LGT RAIN  64  61  90 SW20      30.01R
AMARILLO       CLEAR     41  32  70 NW12      30.22R
$$




USA.gov is the U.S. government's official web portal to all federal, state and local government web resources and services.